Tracking 19177 objects as of 24-May-2018
HD Live streaming from Space Station
objects crossing your sky now

COSMOS 80

Track COSMOS 80 now!
10-day predictions
COSMOS 80 is classified as:


NORAD ID: 1570
Int'l Code: 1965-070A
Perigee: 1,381.2 km
Apogee: 1,539.0 km
Inclination: 56.1 °
Period: 114.9 minutes
Semi major axis: 7831 km
RCS: 0.3558 m2 (medium)
Launch date: September 3, 1965
Source: Commonwealth of Independent States (former USSR) (CIS)
Launch site: TYURATAM MISSILE AND SPACE COMPLEX (TTMTR)
aabbcc
Your satellite tracking list
Your tracking list is empty




NASA's NSSDC Master Catalog

Two Line Element Set (TLE):
1  1570U 65070A   18143.55187223 -.00000090 +00000-0 +37812-4 0  9996
2  1570 056.0541 185.2212 0100797 287.4872 225.6219 12.52759638412090
Source of the keplerian elements: AFSPC